[[{"header":{"parameterUnit":"m.s-1","parameterCategory":2,"la1":30.2991,"la2":30.254,"lo1":-89.0895,"lo2":-89.0444,"dy":0.0017,"dx":0.0017,"nx":28,"ny":28,"refTime":"2025-02-28T09:00:00:Z","depth":"0","parameterNumber":2,"parameterNumberName":"U-component_of_CURRENTS"},"data":[0,0,0,0,0,0,0,0,0,0,0,0,0,0,0,0,0,0,0,0,0,0,0,0,0,0,0,0,0,0,0,0,0,0,0,0,0,0,0,0,0,0,0,0,0,0,0,0,0,0,0,0,0,0,0,0,0,0,0.2664,0.2665,0,0.2681,0.2681,0.268,0.2655,0.2655,0.2654,0.2654,0.2594,0.2593,0.2591,0,0,0,0,0,0,0,0,0,0,0,0,0,0.2648,0.2647,0.2664,0.2665,0.2665,0.2681,0.2681,0.268,0.2655,0.2655,0.2654,0.2654,0.2594,0.2593,0.2591,0,0,0,0,0,0,0,0,0,0,0,0,0,0.2653,0.2647,0.2664,0.2659,0.2659,0.2681,0.2681,0.268,0.2655,0.2654,0.2654,0.2653,0.2595,0.2593,0.2591,0.259,0,0,0.2585,0.2584,0,0,0,0,0,0,0,0,0.2653,0.2653,0.2659,0.2659,0.266,0.267,0.2653,0.2648,0.2655,0.265,0.2654,0.2653,0.2617,0.2613,0.261,0.2587,0.2584,0.2585,0.2584,0.2583,0.2582,0,0,0,0,0,0,0,0.2652,0.2652,0.2665,0.266,0.2661,0.267,0.2669,0.2652,0.263,0.2651,0.265,0.2662,0.2615,0.2612,0.2608,0.2583,0.2585,0.2583,0.2582,0.2581,0.2559,0.2559,0,0,0,0,0,0,0.2661,0.2652,0.2664,0.2666,0.2662,0.2671,0.2669,0.2663,0.2632,0.2629,0.2662,0.2661,0.2615,0.261,0.2606,0.2614,0.2583,0.2581,0.258,0.2558,0.2559,0.2559,0,0,0,0,0,0,0.266,0.2661,0.2664,0.2665,0.2667,0.2672,0.2664,0.2663,0.2662,0.2643,0.2637,0.2663,0.2615,0.2609,0.2593,0.2611,0.258,0.2579,0.2558,0.2558,0.2559,0.2622,0,0,0,0,0,0,0.2659,0.266,0.2659,0.2665,0.2667,0.2679,0.2666,0.2664,0.2673,0.267,0.2641,0.2635,0.2614,0.2596,0.2591,0.2607,0.2577,0.2557,0.2558,0.2559,0.2619,0.2625,0.263,0,0,0,0,0,0.2658,0.2662,0.2659,0.2661,0.2665,0.268,0.2681,0.268,0.2673,0.2675,0.2655,0.2636,0.2599,0.2595,0.2589,0.2605,0.2556,0.2558,0.2559,0.2617,0.2624,0.263,0,0,0,0,0,0,0.2657,0.2661,0.2657,0.2661,0.2672,0.2678,0.2688,0.2685,0.2671,0.2666,0.264,0.2632,0.263,0.2606,0.2602,0.2601,0.2576,0.2576,0.2622,0.2628,0.2634,0.2635,0.2576,0,0,0,0,0,0.2658,0.2657,0.2667,0.2671,0.2679,0.2683,0.269,0.2688,0.2682,0.2676,0.266,0.2641,0.2631,0.2619,0.2606,0.2601,0.2599,0.2608,0.2613,0.2618,0.2615,0.2645,0.2653,0.2564,0.2564,0.2563,0,0,0.266,0.2663,0.2663,0.2672,0.2679,0.2687,0.2684,0.2698,0.2701,0.2671,0.2668,0.266,0.2635,0.2634,0.263,0.2614,0.2642,0.2619,0.2623,0.2618,0.2647,0.2656,0.2664,0.2564,0.2564,0.2564,0,0,0.2663,0.2667,0.2665,0.2675,0.2691,0.2698,0.2703,0.2712,0.2712,0.2711,0.2697,0.27,0.2675,0.267,0.2661,0.2685,0.2674,0.2681,0.2703,0.2733,0.2741,0.2748,0.276,0.2767,0.2678,0.2678,0.2678,0,0.266,0.2659,0.2671,0.2675,0.2686,0.2702,0.2706,0.2714,0.2716,0.272,0.2714,0.271,0.2694,0.2699,0.2709,0.2698,0.2707,0.2684,0.2742,0.2749,0.2755,0.2765,0.2772,0.2682,0.2681,0.2681,0.2681,0,0.2659,0.2662,0.267,0.2673,0.2688,0.27,0.2717,0.2728,0.2736,0.2743,0.276,0.2753,0.2747,0.2752,0.2735,0.277,0.2759,0.2753,0.2731,0.2768,0.2776,0.2782,0.2686,0.2685,0.2684,0.2683,0,0,0.2626,0.2658,0.2655,0.2661,0.2688,0.2695,0.2716,0.2735,0.2754,0.2765,0.2787,0.2788,0.2798,0.2788,0.2784,0.2809,0.2864,0.28,0.28,0.2818,0.2924,0.2841,0.284,0.2876,0.2877,0.2878,0.2913,0,0.2613,0.262,0.2641,0.2652,0.266,0.2688,0.271,0.2731,0.276,0.279,0.2802,0.2824,0.2808,0.2821,0.2843,0.2864,0.2884,0.2854,0.2877,0.2878,0.2806,0.2846,0.2724,0.2738,0.292,0.2921,0.2921,0,0.259,0.2602,0.2608,0.2644,0.2651,0.2662,0.2704,0.2726,0.2778,0.2806,0.2836,0.2853,0.2886,0.2876,0.2924,0.2908,0.2915,0.293,0.2931,0.2834,0.2807,0.2728,0.2743,0.2672,0.2931,0.2931,0.293,0,0.255,0.2573,0.2578,0.2588,0.2633,0.2643,0.2669,0.2723,0.275,0.2823,0.2846,0.2898,0.2914,0.2952,0.2961,0.2957,0.3014,0.301,0.2938,0.2932,0.2819,0.28,0.2769,0.3043,0.3043,0.3043,0.3043,0,0.2525,0.2528,0.2559,0.2563,0.2576,0.2618,0.2647,0.2693,0.2757,0.2777,0.2846,0.2865,0.2936,0.2963,0.2984,0.2972,0.3028,0.2945,0.2939,0.2835,0.2818,0.2741,0.2703,0.3044,0.3044,0.3044,0.3043,0,0.2488,0.2507,0.2513,0.2549,0.2559,0.2567,0.2621,0.2645,0.2718,0.2747,0.2767,0.285,0.2887,0.2936,0.2998,0.2976,0.2902,0.2974,0.2835,0.2811,0.2661,0.263,0.2495,0.2422,0.2909,0.2907,0.2905,0,0.2472,0.247,0.2491,0.2481,0.2497,0.2517,0.2532,0.2616,0.2639,0.2714,0.2714,0.2775,0.2791,0.2856,0.2861,0.2885,0.2814,0.2766,0.2727,0.2633,0.2597,0.2514,0.2457,0.2611,0.2607,0.2604,0.2601,0,0.2437,0.2441,0.2443,0.2427,0.2428,0.2427,0.245,0.2464,0.2539,0.257,0.2591,0.2621,0.2681,0.2655,0.269,0.2691,0.2614,0.2699,0.2649,0.2392,0.2253,0.2185,0.2603,0.2574,0.2576,0.2578,0.258,0.2581,0.2397,0.2381,0.2368,0.2341,0.2338,0.2297,0.2271,0.2306,0.2317,0.2336,0.2427,0.2436,0.2476,0.2511,0.2496,0.2387,0.2403,0.2314,0.2296,0.2231,0.2109,0.2448,0.238,0.2381,0.2383,0.2384,0.2385,0,0.2317,0.2294,0.2275,0.2216,0.216,0.2192,0.2179,0.2147,0.2117,0.2187,0.2211,0.22,0.2171,0.2195,0.2118,0.2017,0.1952,0.1949,0.1824,0.18,0.2149,0.2084,0.1889,0.1889,0.1889,0.189,0.189,0.189,0.2268,0.2205,0.2182,0.2038,0.1996,0.1904,0.1873,0.1871,0.1906,0.1886,0.1883,0.192,0.1961,0.1894,0.1775,0.1734,0.161,0.1501,0.1526,0.1795,0.1829,0.1861,0.1793,0.1541,0.154,0.1111,0.1108,0.1105]},{"header":{"parameterUnit":"m.s-1","parameterCategory":2,"la1":30.2991,"la2":30.254,"lo1":-89.0895,"lo2":-89.0444,"dy":0.0017,"dx":0.0017,"nx":28,"ny":28,"refTime":"2025-02-28T09:00:00:Z","depth":"0","parameterNumber":3,"parameterNumberName":"V-component_of_CURRENTS"},"data":[0,0,0,0,0,0,0,0,0,0,0,0,0,0,0,0,0,0,0,0,0,0,0,0,0,0,0,0,0,0,0,0,0,0,0,0,0,0,0,0,0,0,0,0,0,0,0,0,0,0,0,0,0,0,0,0,0,0,-0.0142,-0.0142,0,-0.017,-0.0171,-0.0171,-0.0194,-0.0195,-0.0195,-0.0195,-0.0244,-0.0245,-0.0246,0,0,0,0,0,0,0,0,0,0,0,0,0,-0.0162,-0.0161,-0.0142,-0.0142,-0.0143,-0.017,-0.0171,-0.0171,-0.0194,-0.0195,-0.0195,-0.0196,-0.0244,-0.0245,-0.0246,0,0,0,0,0,0,0,0,0,0,0,0,0,-0.0167,-0.0161,-0.0142,-0.0158,-0.016,-0.017,-0.0171,-0.0171,-0.0194,-0.0195,-0.0195,-0.0196,-0.0243,-0.0245,-0.0246,-0.0246,0,0,-0.0251,-0.0251,0,0,0,0,0,0,0,0,-0.0167,-0.0166,-0.0155,-0.0157,-0.0159,-0.018,-0.0196,-0.0197,-0.0194,-0.018,-0.0195,-0.0196,-0.0225,-0.0228,-0.0231,-0.0248,-0.025,-0.0251,-0.0252,-0.0252,-0.0253,0,0,0,0,0,0,0,-0.0166,-0.0165,-0.0152,-0.0156,-0.0158,-0.0183,-0.0184,-0.0196,-0.0199,-0.0182,-0.0184,-0.0188,-0.0226,-0.0229,-0.0232,-0.0251,-0.0251,-0.0252,-0.0253,-0.0254,-0.0279,-0.0279,0,0,0,0,0,0,-0.0161,-0.0165,-0.0152,-0.0153,-0.0165,-0.0182,-0.0183,-0.0172,-0.0199,-0.0203,-0.0188,-0.0189,-0.0226,-0.023,-0.0234,-0.0227,-0.0252,-0.0254,-0.0255,-0.0279,-0.0279,-0.0279,0,0,0,0,0,0,-0.0161,-0.0158,-0.015,-0.0161,-0.0162,-0.0181,-0.0169,-0.0173,-0.0178,-0.0203,-0.0208,-0.0189,-0.0227,-0.0232,-0.0238,-0.0229,-0.0255,-0.0256,-0.0279,-0.0279,-0.0279,-0.0218,0,0,0,0,0,0,-0.0161,-0.0158,-0.015,-0.016,-0.0161,-0.0148,-0.0169,-0.0173,-0.018,-0.0182,-0.0206,-0.0211,-0.0228,-0.0235,-0.0239,-0.0232,-0.0257,-0.028,-0.0279,-0.0279,-0.022,-0.0216,-0.0212,0,0,0,0,0,-0.0161,-0.0149,-0.0149,-0.0148,-0.0148,-0.0147,-0.015,-0.0165,-0.0179,-0.0173,-0.019,-0.021,-0.0236,-0.0236,-0.0241,-0.0233,-0.028,-0.0279,-0.0279,-0.0222,-0.0217,-0.0212,0,0,0,0,0,0,-0.0157,-0.0151,-0.0151,-0.0138,-0.0138,-0.0151,-0.015,-0.0163,-0.0171,-0.0175,-0.0202,-0.0208,-0.0211,-0.0232,-0.0231,-0.0241,-0.0263,-0.0264,-0.0219,-0.0214,-0.021,-0.0189,-0.0258,0,0,0,0,0,-0.015,-0.0138,-0.0137,-0.0127,-0.0122,-0.0135,-0.0139,-0.0146,-0.0157,-0.0162,-0.0178,-0.0198,-0.0213,-0.022,-0.0234,-0.0236,-0.025,-0.0237,-0.0233,-0.0229,-0.0216,-0.0236,-0.0232,-0.0277,-0.0277,-0.0277,0,0,-0.0148,-0.0143,-0.0138,-0.0126,-0.0126,-0.0108,-0.0138,-0.0135,-0.0124,-0.0165,-0.0156,-0.0181,-0.021,-0.021,-0.0215,-0.0226,-0.0223,-0.0228,-0.0225,-0.0214,-0.0235,-0.0231,-0.0227,-0.0276,-0.0277,-0.0277,0,0,-0.0129,-0.0127,-0.0104,-0.0097,-0.0091,-0.0095,-0.0092,-0.0096,-0.01,-0.0099,-0.0125,-0.0141,-0.0164,-0.0176,-0.0189,-0.0171,-0.0199,-0.0183,-0.0143,-0.0162,-0.0158,-0.0155,-0.0158,-0.0155,-0.0181,-0.0181,-0.0181,0,-0.0122,-0.0091,-0.01,-0.0072,-0.0061,-0.0083,-0.0053,-0.0059,-0.0068,-0.0064,-0.0089,-0.0117,-0.0146,-0.0143,-0.014,-0.0159,-0.0171,-0.0158,-0.0155,-0.0152,-0.015,-0.0154,-0.0152,-0.0178,-0.0178,-0.0179,-0.0179,0,-0.0076,-0.0056,-0.0042,-0.0008,-0.0,0.0018,0.0017,0.0021,0.0005,-0.0003,-0.0008,-0.0048,-0.0064,-0.0082,-0.0107,-0.0104,-0.0116,-0.0146,-0.0164,-0.0142,-0.0147,-0.0146,-0.0174,-0.0175,-0.0176,-0.0176,0,0,-0.0036,-0.0012,-0.0003,0.002,0.0037,0.0052,0.0071,0.0089,0.0108,0.0078,0.0097,0.0054,0.0026,0.001,-0.0027,-0.0048,-0.0048,-0.0086,-0.0089,-0.008,-0.0077,-0.0082,-0.0081,-0.0079,-0.0079,-0.0079,-0.0083,0,0.0011,0.0069,0.0069,0.0121,0.0153,0.0142,0.0162,0.0168,0.0164,0.0176,0.0127,0.0123,0.0063,0.0053,0.0024,-0.0026,-0.0044,-0.0043,-0.0107,-0.0108,-0.0109,-0.008,-0.0055,-0.0056,-0.0082,-0.0082,-0.0082,0,0.0072,0.0101,0.0159,0.0191,0.0206,0.0227,0.0265,0.0283,0.0285,0.028,0.0264,0.0224,0.0195,0.0132,0.0063,0.0067,0.0004,-0.0043,-0.0045,-0.0069,-0.0112,-0.0086,-0.0054,-0.0119,-0.0081,-0.0081,-0.0081,0,0.0119,0.0168,0.0214,0.0228,0.0258,0.0279,0.0298,0.0314,0.0348,0.035,0.0365,0.0318,0.0302,0.0215,0.0109,0.0087,0.0034,-0.0012,-0.0072,-0.0073,-0.0072,-0.0073,-0.0102,-0.0061,-0.0061,-0.0061,-0.0061,0,0.0175,0.0212,0.0236,0.0263,0.0321,0.0325,0.0389,0.0399,0.0432,0.0483,0.0421,0.0448,0.0319,0.0266,0.0154,0.0058,0.0067,-0.0049,-0.0072,-0.005,-0.0049,-0.0124,-0.018,-0.0061,-0.0061,-0.0061,-0.0061,0,0.0214,0.0231,0.0289,0.0328,0.0343,0.0388,0.0453,0.0502,0.0515,0.0582,0.0583,0.0557,0.0492,0.0362,0.0238,0.0131,-0.0013,-0.0018,0.0027,0.0009,-0.0115,-0.0169,-0.022,-0.0256,-0.0076,-0.0076,-0.0076,0,0.0237,0.0268,0.0338,0.038,0.0398,0.046,0.0506,0.0543,0.0606,0.0654,0.0696,0.0654,0.0648,0.0475,0.0282,0.0108,0.0004,0.0002,-0.0045,-0.01,-0.0178,-0.0207,-0.0237,-0.0016,-0.0015,-0.0015,-0.0015,0,0.0279,0.0304,0.0353,0.0437,0.0497,0.0573,0.0644,0.0706,0.0756,0.0812,0.0881,0.0879,0.0722,0.0577,0.033,0.0191,-0.0034,0.0003,-0.0068,-0.0138,-0.0157,-0.0209,-0.0026,-0.0012,-0.0012,-0.0012,-0.0013,-0.0013,0.0311,0.0354,0.042,0.0503,0.0577,0.0674,0.0745,0.0832,0.0937,0.1035,0.1028,0.1059,0.0834,0.0515,0.0325,0.0008,-0.0015,-0.009,-0.015,-0.0172,-0.021,-0.0011,-0.0021,-0.0021,-0.0021,-0.0022,-0.0022,0,0.0349,0.04,0.048,0.0581,0.0669,0.0699,0.0828,0.0907,0.1035,0.1143,0.121,0.1129,0.086,0.055,0.0123,-0.0092,-0.018,-0.0216,-0.025,-0.0275,-0.0103,-0.0103,-0.0113,-0.0113,-0.0113,-0.0113,-0.0113,-0.0113,0.0371,0.0448,0.049,0.0635,0.0706,0.0823,0.0899,0.1023,0.1129,0.127,0.1311,0.1313,0.1064,0.0363,-0.0106,-0.0224,-0.0365,-0.04,-0.0482,-0.0365,-0.0358,-0.0351,-0.0363,-0.0427,-0.0428,-0.0606,-0.0608,-0.061]}],[{"header":{"parameterUnit":"m.s-1","parameterCategory":2,"la1":30.2991,"la2":30.254,"lo1":-89.0895,"lo2":-89.0444,"dy":0.0017,"dx":0.0017,"nx":28,"ny":28,"refTime":"2025-02-28T09:00:00:Z","depth":"2","parameterNumber":2,"parameterNumberName":"U-component_of_CURRENTS"},"data":[0,0,0,0,0,0,0,0,0,0,0,0,0,0,0,0,0,0,0,0,0,0,0,0,0,0,0,0,0,0,0,0,0,0,0,0,0,0,0,0,0,0,0,0,0,0,0,0,0,0,0,0,0,0,0,0,0,0,0.2141,0.2142,0,0.2152,0.2152,0.2152,0.2209,0.2211,0.2213,0.2214,0.2154,0.215,0.2147,0,0,0,0,0,0,0,0,0,0,0,0,0,0.2112,0.2112,0.2141,0.2142,0.2142,0.2152,0.2152,0.2152,0.2209,0.2211,0.2213,0.2215,0.2155,0.2151,0.2147,0,0,0,0,0,0,0,0,0,0,0,0,0,0.212,0.2112,0.2141,0.2175,0.2179,0.2152,0.2152,0.2151,0.2208,0.2211,0.2214,0.2216,0.2156,0.2151,0.2146,0.2062,0,0,0.2131,0.2129,0,0,0,0,0,0,0,0,0.2119,0.212,0.217,0.2173,0.2177,0.2186,0.212,0.212,0.2208,0.2192,0.2214,0.2217,0.2159,0.2154,0.2144,0.2059,0.2057,0.2131,0.2128,0.2126,0.2124,0,0,0,0,0,0,0,0.2119,0.212,0.2141,0.217,0.2175,0.2171,0.2175,0.212,0.2155,0.2194,0.2199,0.2207,0.216,0.2149,0.2143,0.2056,0.2131,0.2127,0.2124,0.2122,0.2103,0.2105,0,0,0,0,0,0,0.2126,0.2119,0.2141,0.2142,0.2159,0.217,0.2174,0.2177,0.2158,0.2159,0.2204,0.221,0.2156,0.2149,0.2141,0.2178,0.2126,0.2121,0.2118,0.21,0.2103,0.2106,0,0,0,0,0,0,0.2126,0.2128,0.214,0.2135,0.2137,0.2168,0.217,0.2175,0.2185,0.2168,0.2168,0.2212,0.2158,0.2148,0.2143,0.2171,0.2119,0.2114,0.2097,0.2101,0.2104,0.2162,0,0,0,0,0,0,0.2124,0.2127,0.2134,0.2135,0.2138,0.2147,0.2168,0.2174,0.2187,0.2194,0.2172,0.2169,0.2159,0.2151,0.2138,0.2163,0.2111,0.2094,0.2099,0.2103,0.2157,0.2167,0.2175,0,0,0,0,0,0.2123,0.2137,0.2134,0.2138,0.2145,0.2148,0.2148,0.2176,0.2185,0.2192,0.2199,0.2171,0.2173,0.2147,0.2132,0.2156,0.2092,0.2098,0.2103,0.2152,0.2165,0.2175,0,0,0,0,0,0,0.2129,0.2144,0.2142,0.2159,0.2159,0.216,0.2177,0.2174,0.2179,0.2198,0.2172,0.2169,0.2181,0.216,0.2133,0.2174,0.2138,0.214,0.2181,0.2192,0.2201,0.2186,0.2106,0,0,0,0,0,0.2129,0.2146,0.2146,0.2158,0.2163,0.216,0.2165,0.2181,0.2185,0.2191,0.218,0.2184,0.2184,0.2183,0.2175,0.2165,0.2147,0.2185,0.2195,0.2203,0.2186,0.2207,0.2216,0.2124,0.2124,0.2124,0,0,0.2133,0.2145,0.2153,0.2161,0.2165,0.2172,0.2171,0.2191,0.2201,0.2177,0.2196,0.2198,0.2189,0.221,0.2215,0.2199,0.2223,0.221,0.2216,0.2194,0.2213,0.2222,0.2229,0.2128,0.2127,0.2126,0,0,0.2145,0.216,0.2172,0.2175,0.2191,0.2196,0.2201,0.2208,0.2223,0.2226,0.2237,0.2255,0.2239,0.2254,0.2253,0.2298,0.2268,0.2317,0.2346,0.2368,0.2374,0.238,0.2373,0.2378,0.2327,0.2327,0.2327,0,0.2153,0.2159,0.2174,0.2182,0.2193,0.2206,0.2214,0.2222,0.223,0.224,0.2251,0.2271,0.2257,0.2284,0.2322,0.2313,0.2319,0.2298,0.2377,0.2382,0.2386,0.2378,0.2382,0.2331,0.233,0.233,0.233,0,0.2153,0.2169,0.2181,0.2197,0.221,0.2226,0.2241,0.2261,0.2279,0.2287,0.2321,0.2323,0.2338,0.2355,0.2344,0.2388,0.2379,0.2379,0.2338,0.2398,0.2387,0.239,0.2335,0.2334,0.2333,0.2332,0,0,0.2147,0.2176,0.218,0.2186,0.2222,0.2228,0.2264,0.2287,0.2308,0.2336,0.2362,0.2382,0.2396,0.2398,0.2406,0.2426,0.2464,0.2426,0.2425,0.2401,0.2506,0.2442,0.2439,0.2492,0.2493,0.2494,0.2485,0,0.2141,0.2155,0.2177,0.2198,0.2206,0.2242,0.227,0.2301,0.2331,0.2365,0.239,0.2419,0.2411,0.2435,0.2456,0.246,0.2476,0.2465,0.2465,0.2464,0.2386,0.2442,0.2262,0.2235,0.2488,0.2488,0.2489,0,0.2125,0.214,0.2155,0.2196,0.2205,0.2225,0.2278,0.2301,0.236,0.2389,0.2432,0.2456,0.2489,0.2483,0.2507,0.2509,0.2508,0.2508,0.2508,0.2423,0.2407,0.2218,0.2231,0.2493,0.2493,0.2493,0.2492,0,0.2091,0.2125,0.2138,0.2148,0.2198,0.2219,0.225,0.2308,0.2336,0.2405,0.2437,0.2488,0.251,0.2531,0.253,0.2533,0.255,0.2551,0.2486,0.2481,0.2308,0.2286,0.2565,0.2565,0.2565,0.2565,0.2565,0,0.2068,0.2078,0.2123,0.2124,0.2153,0.2195,0.2235,0.2276,0.2344,0.2371,0.2441,0.2468,0.2528,0.2547,0.2547,0.2518,0.2562,0.2484,0.2479,0.2326,0.2306,0.2512,0.2506,0.2564,0.2564,0.2565,0.2565,0,0.2028,0.205,0.2065,0.2115,0.2134,0.215,0.2219,0.2239,0.2313,0.2352,0.2379,0.2461,0.2485,0.2522,0.2549,0.2519,0.2511,0.249,0.2294,0.2265,0.2421,0.2419,0.2415,0.2413,0.2411,0.2409,0.2408,0,0.2011,0.2011,0.2054,0.205,0.207,0.2107,0.213,0.2215,0.2234,0.2326,0.2329,0.2397,0.2414,0.2433,0.2413,0.2401,0.2464,0.2214,0.218,0.2413,0.2408,0.2409,0.2409,0.1975,0.1971,0.1967,0.1964,0,0.1973,0.1986,0.1993,0.1996,0.2004,0.2022,0.2057,0.2074,0.2156,0.2196,0.2224,0.2257,0.2293,0.2206,0.221,0.218,0.2206,0.2134,0.2432,0.2048,0.1999,0.1995,0.2009,0.1929,0.1933,0.1935,0.1937,0.1938,0.1944,0.1931,0.193,0.192,0.1925,0.1905,0.1892,0.1928,0.195,0.1971,0.2064,0.2044,0.2068,0.1983,0.1914,0.1863,0.202,0.1924,0.1936,0.1951,0.1909,0.186,0.1755,0.1757,0.1759,0.1761,0.1762,0,0.1874,0.1858,0.1849,0.1814,0.1776,0.1818,0.1814,0.1776,0.1752,0.1805,0.1828,0.1675,0.1629,0.1649,0.1521,0.1517,0.1502,0.1451,0.1415,0.1452,0.1483,0.1416,0.1131,0.1129,0.1127,0.1125,0,0,0.1828,0.1776,0.176,0.1664,0.165,0.158,0.1556,0.1513,0.1519,0.147,0.1452,0.1579,0.1617,0.1358,0.1324,0.1202,0.1319,0.1157,0.1668,0.1664,0.1693,0.1766,0.1705,0,0,0,0,0]},{"header":{"parameterUnit":"m.s-1","parameterCategory":2,"la1":30.2991,"la2":30.254,"lo1":-89.0895,"lo2":-89.0444,"dy":0.0017,"dx":0.0017,"nx":28,"ny":28,"refTime":"2025-02-28T09:00:00:Z","depth":"2","parameterNumber":3,"parameterNumberName":"V-component_of_CURRENTS"},"data":[0,0,0,0,0,0,0,0,0,0,0,0,0,0,0,0,0,0,0,0,0,0,0,0,0,0,0,0,0,0,0,0,0,0,0,0,0,0,0,0,0,0,0,0,0,0,0,0,0,0,0,0,0,0,0,0,0,0,0.0299,0.0299,0,0.0275,0.0275,0.0275,0.0226,0.0225,0.0224,0.0223,0.0202,0.0202,0.0203,0,0,0,0,0,0,0,0,0,0,0,0,0,0.0273,0.0274,0.0299,0.0299,0.0299,0.0275,0.0275,0.0274,0.0226,0.0225,0.0224,0.0223,0.0202,0.0202,0.0203,0,0,0,0,0,0,0,0,0,0,0,0,0,0.0269,0.0274,0.03,0.0273,0.0271,0.0276,0.0275,0.0274,0.0226,0.0225,0.0224,0.0223,0.0202,0.0202,0.0203,0.023,0,0,0.0204,0.0204,0,0,0,0,0,0,0,0,0.027,0.027,0.0277,0.0275,0.0272,0.0253,0.0258,0.026,0.0227,0.0242,0.0223,0.0222,0.0221,0.022,0.0216,0.0229,0.0228,0.0204,0.0204,0.0204,0.0204,0,0,0,0,0,0,0,0.027,0.0271,0.0289,0.0277,0.0274,0.0252,0.025,0.0258,0.0238,0.024,0.0237,0.0237,0.022,0.0216,0.0216,0.0228,0.0204,0.0204,0.0204,0.0204,0.0175,0.0174,0,0,0,0,0,0,0.0279,0.0272,0.0289,0.0288,0.0269,0.0254,0.0252,0.026,0.0238,0.0234,0.0238,0.0235,0.0216,0.0215,0.0215,0.0207,0.0204,0.0204,0.0205,0.0176,0.0174,0.0173,0,0,0,0,0,0,0.0279,0.0281,0.029,0.0279,0.0279,0.0256,0.0265,0.026,0.0252,0.0236,0.0231,0.0234,0.0215,0.0214,0.0207,0.0208,0.0205,0.0205,0.0177,0.0175,0.0174,0.0218,0,0,0,0,0,0,0.0278,0.0282,0.0287,0.0281,0.028,0.0294,0.0266,0.026,0.0254,0.025,0.0232,0.0229,0.0214,0.0206,0.0207,0.0208,0.0205,0.0178,0.0176,0.0174,0.0218,0.0218,0.0219,0,0,0,0,0,0.0278,0.0291,0.0288,0.029,0.029,0.0295,0.0292,0.027,0.0256,0.0257,0.0234,0.0229,0.0194,0.0207,0.0207,0.0209,0.0179,0.0177,0.0175,0.0218,0.0218,0.0219,0,0,0,0,0,0,0.0282,0.0288,0.0283,0.0298,0.0297,0.0287,0.0286,0.0276,0.026,0.0252,0.0233,0.0228,0.0218,0.0204,0.0218,0.0188,0.018,0.0178,0.0212,0.0212,0.0213,0.0239,0.0205,0,0,0,0,0,0.0289,0.0299,0.0301,0.0311,0.0314,0.0302,0.03,0.0288,0.0276,0.0268,0.0253,0.0229,0.0211,0.0205,0.0189,0.019,0.0177,0.0182,0.0183,0.0183,0.0201,0.0175,0.0175,0.0166,0.0166,0.0166,0,0,0.0293,0.0298,0.0302,0.0313,0.0309,0.0322,0.0297,0.0299,0.0301,0.0271,0.0265,0.0239,0.021,0.0198,0.0191,0.0188,0.0175,0.018,0.0182,0.02,0.0173,0.0174,0.0175,0.0165,0.0165,0.0165,0,0,0.031,0.0313,0.0328,0.0333,0.0336,0.0333,0.0337,0.0329,0.0315,0.0313,0.0279,0.0257,0.0238,0.0214,0.02,0.0197,0.0179,0.0177,0.0208,0.0181,0.0183,0.0184,0.0162,0.0161,0.0177,0.0177,0.0177,0,0.0315,0.0337,0.0332,0.035,0.036,0.0342,0.0363,0.0353,0.0339,0.0334,0.0314,0.0271,0.0249,0.0232,0.022,0.0203,0.0182,0.0215,0.0185,0.0186,0.0187,0.0164,0.0162,0.0179,0.0179,0.0179,0.0178,0,0.0347,0.0363,0.0373,0.0393,0.0401,0.0416,0.041,0.0404,0.0388,0.0376,0.0354,0.0316,0.0292,0.0268,0.0247,0.0231,0.0213,0.0193,0.0195,0.0191,0.0166,0.0164,0.0182,0.0181,0.018,0.018,0,0,0.0369,0.0392,0.0397,0.0415,0.0428,0.0442,0.0445,0.0449,0.0457,0.0423,0.0425,0.0378,0.0354,0.0335,0.0295,0.027,0.0249,0.0236,0.0233,0.0233,0.0191,0.0177,0.0173,0.0221,0.0221,0.0221,0.017,0,0.0398,0.0443,0.0445,0.0485,0.051,0.0499,0.0511,0.0507,0.0495,0.049,0.0438,0.0425,0.0379,0.0366,0.0333,0.0272,0.0245,0.0265,0.0178,0.0176,0.018,0.0171,0.0189,0.0145,0.0168,0.0167,0.0167,0,0.0435,0.0461,0.0507,0.054,0.055,0.0568,0.059,0.0599,0.0581,0.0569,0.0541,0.05,0.0458,0.0416,0.0326,0.0338,0.0274,0.0224,0.022,0.0197,0.0159,0.015,0.014,0.0163,0.0163,0.0163,0.0164,0,0.0466,0.0506,0.0545,0.0558,0.059,0.0602,0.0619,0.0621,0.0638,0.062,0.0625,0.0563,0.0537,0.045,0.0342,0.0332,0.0241,0.0213,0.0142,0.014,0.0136,0.0134,0.0156,0.0156,0.0156,0.0156,0.0156,0,0.0504,0.0535,0.0562,0.0587,0.0633,0.0643,0.0688,0.0691,0.0704,0.0731,0.0671,0.0671,0.0544,0.047,0.0366,0.0251,0.0258,0.0156,0.0129,0.0148,0.0148,0.0149,0.0148,0.0154,0.0154,0.0155,0.0155,0,0.053,0.0548,0.0598,0.0638,0.0649,0.0688,0.0738,0.0772,0.0777,0.0808,0.0803,0.075,0.0658,0.0526,0.0387,0.0291,0.0176,0.0131,0.0166,0.0144,0.0086,0.0088,0.0053,0.0052,0.0051,0.0051,0.005,0,0.0545,0.0574,0.0635,0.0669,0.0687,0.0739,0.0776,0.0803,0.0843,0.0856,0.0874,0.0801,0.0759,0.0556,0.0375,0.0198,0.017,0.0095,0.0081,0.01,0.0077,0.008,0.0083,0.0085,0.0085,0.0085,0.0085,0,0.0574,0.0598,0.064,0.0709,0.0756,0.0816,0.087,0.0911,0.0943,0.0969,0.0986,0.0956,0.0772,0.0601,0.0361,0.0239,0.0124,0.0086,0.0095,0.0111,0.0127,0.0105,0.0108,0.0084,0.0084,0.0084,0.0084,0.0084,0.0592,0.0628,0.0682,0.0746,0.0806,0.0877,0.0933,0.0991,0.1055,0.1098,0.1068,0.1029,0.0842,0.054,0.0334,0.0114,0.0122,0.0043,0.0045,0.0046,0.0062,0.0076,0.0026,0.0026,0.0025,0.0025,0.0025,0,0.0609,0.065,0.0714,0.0791,0.0855,0.0886,0.0983,0.1039,0.1114,0.115,0.1166,0.0981,0.0795,0.0572,0.0253,0.0067,0.0053,0.0002,0.003,0.0032,0.0035,0.005,0.001,0.001,0.0009,0.0009,0,0,0.062,0.0673,0.0705,0.0804,0.0861,0.0955,0.1014,0.1102,0.1157,0.1188,0.1168,0.1134,0.0862,0.0632,0.0378,0.0194,0.0155,0.0154,0.0186,0.0253,0.0257,0.0078,0.0108,0,0,0,0,0]}],[{"header":{"parameterUnit":"m.s-1","parameterCategory":2,"la1":30.2991,"la2":30.254,"lo1":-89.0895,"lo2":-89.0444,"dy":0.0017,"dx":0.0017,"nx":28,"ny":28,"refTime":"2025-02-28T09:00:00:Z","depth":"4","parameterNumber":2,"parameterNumberName":"U-component_of_CURRENTS"},"data":[0,0,0,0,0,0,0,0,0,0,0,0,0,0,0,0,0,0,0,0,0,0,0,0,0,0,0,0,0,0,0,0,0,0,0,0,0,0,0,0,0,0,0,0,0,0,0,0,0,0,0,0,0,0,0,0,0,0,0.1041,0.1042,0,0.1085,0.1086,0.1086,0.1116,0.1116,0.1116,0.1116,0.1155,0.1156,0.1157,0,0,0,0,0,0,0,0,0,0,0,0,0,0.1029,0.1029,0.1041,0.1042,0.1042,0.1085,0.1086,0.1086,0.1116,0.1116,0.1116,0.1116,0.1154,0.1155,0.1157,0,0,0,0,0,0,0,0,0,0,0,0,0,0.1052,0.1029,0.1041,0.1061,0.1063,0.1085,0.1086,0.1087,0.1116,0.1116,0.1116,0.1116,0.1154,0.1155,0.1157,0.1165,0,0,0.1161,0.1162,0,0,0,0,0,0,0,0,0.105,0.1052,0.1057,0.1059,0.1062,0.1093,0.1095,0.1112,0.1116,0.1098,0.1116,0.1116,0.1132,0.1136,0.1147,0.1166,0.1168,0.1161,0.1162,0.1163,0.1163,0,0,0,0,0,0,0,0.1049,0.1051,0.1061,0.1058,0.106,0.1083,0.1086,0.1099,0.1116,0.11,0.1101,0.1103,0.1134,0.1145,0.1148,0.1169,0.1161,0.1163,0.1164,0.1164,0.1256,0.1258,0,0,0,0,0,0,0.1037,0.1049,0.1059,0.1062,0.1054,0.1082,0.1086,0.1085,0.1116,0.112,0.1103,0.1104,0.1143,0.1146,0.1149,0.1219,0.1163,0.1164,0.1165,0.1255,0.1257,0.1258,0,0,0,0,0,0,0.1036,0.1037,0.1057,0.1055,0.1059,0.1082,0.1081,0.1086,0.1124,0.1118,0.1123,0.1139,0.1143,0.1147,0.1184,0.1218,0.1165,0.1166,0.1253,0.1255,0.1258,0.132,0,0,0,0,0,0,0.1036,0.1037,0.1049,0.1054,0.1058,0.1088,0.1081,0.1086,0.1122,0.1125,0.115,0.1152,0.1143,0.1182,0.1185,0.1219,0.1167,0.1251,0.1254,0.1257,0.1316,0.1325,0.1332,0,0,0,0,0,0.1035,0.1044,0.1049,0.1051,0.1069,0.1089,0.1094,0.1112,0.1124,0.1147,0.1164,0.1153,0.1203,0.1185,0.1188,0.1223,0.125,0.1253,0.1257,0.1313,0.1323,0.1331,0,0,0,0,0,0,0.1043,0.1047,0.1054,0.1063,0.1084,0.1093,0.1114,0.1131,0.1165,0.1172,0.1173,0.1177,0.1222,0.1216,0.1195,0.1259,0.1225,0.1229,0.1266,0.1276,0.1283,0.1261,0.1169,0,0,0,0,0,0.1049,0.1063,0.1069,0.1084,0.1091,0.1112,0.1129,0.1141,0.1161,0.1178,0.1193,0.1211,0.1236,0.1251,0.1264,0.13,0.1291,0.1325,0.1333,0.134,0.1325,0.1346,0.1353,0.127,0.127,0.127,0,0,0.1054,0.1063,0.1069,0.1089,0.1104,0.1122,0.1124,0.1153,0.1179,0.1175,0.1222,0.124,0.1252,0.1291,0.1311,0.1293,0.1365,0.1344,0.135,0.1331,0.135,0.1358,0.1365,0.1272,0.1272,0.1272,0,0,0.1069,0.108,0.1096,0.1111,0.1138,0.1149,0.1165,0.1188,0.1212,0.1258,0.1262,0.13,0.1338,0.1349,0.1361,0.142,0.1405,0.1433,0.1455,0.1476,0.1483,0.1488,0.151,0.1516,0.1436,0.1437,0.1437,0,0.1079,0.1091,0.1107,0.1124,0.1138,0.1165,0.1183,0.1213,0.125,0.1271,0.1281,0.1347,0.1363,0.1407,0.1427,0.1438,0.1442,0.142,0.1485,0.149,0.1495,0.1515,0.1522,0.144,0.144,0.1439,0.1439,0,0.1091,0.1114,0.1125,0.1154,0.1177,0.1197,0.1225,0.1262,0.1299,0.1323,0.1384,0.1409,0.1449,0.1467,0.1467,0.1512,0.1505,0.1494,0.1459,0.1507,0.1526,0.1531,0.1445,0.1444,0.1443,0.1442,0,0,0.108,0.1124,0.113,0.1153,0.119,0.121,0.1256,0.1299,0.1342,0.1386,0.1439,0.1486,0.1507,0.152,0.1534,0.1545,0.1599,0.1534,0.1533,0.1548,0.1649,0.1541,0.1536,0.16,0.1601,0.1602,0.1656,0,0.1089,0.1122,0.1143,0.1189,0.1207,0.1242,0.1286,0.1333,0.1383,0.1443,0.1478,0.1537,0.1528,0.1565,0.1578,0.1599,0.1613,0.1585,0.1603,0.1603,0.1496,0.1539,0.1605,0.1661,0.1662,0.1663,0.1663,0,0.1092,0.1115,0.115,0.1211,0.1222,0.1261,0.1332,0.1374,0.1452,0.1492,0.1546,0.1582,0.1634,0.1616,0.166,0.1644,0.1647,0.1647,0.1649,0.152,0.1504,0.1597,0.1673,0.1673,0.1672,0.1671,0.167,0,0.1073,0.1127,0.1158,0.1172,0.1237,0.1276,0.1323,0.1396,0.144,0.1533,0.1578,0.1637,0.169,0.1698,0.1713,0.1698,0.1741,0.1729,0.1629,0.1623,0.1675,0.1668,0.1741,0.1741,0.1741,0.1741,0.174,0,0.1062,0.1094,0.1162,0.1173,0.123,0.1282,0.1354,0.1406,0.149,0.154,0.161,0.1652,0.171,0.1745,0.1737,0.1701,0.1772,0.1628,0.1624,0.1705,0.1701,0.1681,0.1673,0.1743,0.1742,0.1742,0.1741,0,0.1034,0.1074,0.1116,0.1189,0.1222,0.1266,0.1366,0.1409,0.1497,0.1568,0.1603,0.169,0.173,0.1763,0.1791,0.173,0.171,0.1675,0.177,0.1772,0.1573,0.1568,0.1573,0.157,0.1567,0.1564,0.1562,0,0.1015,0.1036,0.1116,0.1144,0.1183,0.126,0.1305,0.1402,0.1448,0.1569,0.1591,0.1675,0.1717,0.1672,0.1711,0.1695,0.1661,0.1644,0.1583,0.1557,0.1554,0.1554,0.1553,0.1558,0.1557,0.1556,0.1555,0,0.0976,0.1017,0.1049,0.1104,0.1159,0.121,0.129,0.1312,0.1418,0.1514,0.1542,0.1556,0.1595,0.1606,0.1605,0.1585,0.1652,0.1613,0.1618,0.1561,0.1538,0.1538,0.1541,0.1545,0.1547,0.1548,0.1548,0,0.0952,0.0963,0.1012,0.1058,0.1119,0.114,0.1188,0.1238,0.1292,0.1422,0.143,0.1503,0.1588,0.1549,0.1548,0.1524,0.149,0.1424,0.1439,0.145,0.1379,0.1331,0.1267,0,0,0,0,0,0.092,0.0926,0.0958,0.0995,0.1052,0.1087,0.1168,0.1215,0.132,0.1303,0.1363,0.1389,0.1388,0.1426,0.1372,0.1485,0.1493,0.1415,0.1426,0.1488,0.15,0.1425,0,0,0,0,0,0,0.0896,0.0926,0.0933,0.0941,0.0955,0.1003,0.1045,0.111,0.1111,0.1218,0.1226,0.1306,0.1327,0.1408,0.1349,0.1358,0.1333,0.1466,0.1461,0.1482,0.1492,0.1502,0.1429,0,0,0,0,0]},{"header":{"parameterUnit":"m.s-1","parameterCategory":2,"la1":30.2991,"la2":30.254,"lo1":-89.0895,"lo2":-89.0444,"dy":0.0017,"dx":0.0017,"nx":28,"ny":28,"refTime":"2025-02-28T09:00:00:Z","depth":"4","parameterNumber":3,"parameterNumberName":"V-component_of_CURRENTS"},"data":[0,0,0,0,0,0,0,0,0,0,0,0,0,0,0,0,0,0,0,0,0,0,0,0,0,0,0,0,0,0,0,0,0,0,0,0,0,0,0,0,0,0,0,0,0,0,0,0,0,0,0,0,0,0,0,0,0,0,0.0322,0.0322,0,0.0323,0.0323,0.0323,0.0327,0.0327,0.0327,0.0327,0.0313,0.0313,0.0312,0,0,0,0,0,0,0,0,0,0,0,0,0,0.0294,0.0295,0.0322,0.0322,0.0322,0.0323,0.0323,0.0323,0.0327,0.0327,0.0327,0.0327,0.0314,0.0313,0.0312,0,0,0,0,0,0,0,0,0,0,0,0,0,0.0301,0.0295,0.0322,0.0325,0.0326,0.0323,0.0323,0.0323,0.0327,0.0327,0.0327,0.0328,0.0314,0.0313,0.0312,0.03,0,0,0.031,0.0309,0,0,0,0,0,0,0,0,0.03,0.0302,0.0324,0.0325,0.0325,0.0327,0.0309,0.0315,0.0326,0.0324,0.0327,0.0328,0.0317,0.0316,0.0314,0.03,0.0299,0.0309,0.0309,0.0309,0.0308,0,0,0,0,0,0,0,0.03,0.0301,0.0321,0.0325,0.0325,0.0318,0.0319,0.031,0.0317,0.0325,0.0325,0.0328,0.0317,0.0314,0.0313,0.0299,0.031,0.0309,0.0308,0.0308,0.0285,0.0285,0,0,0,0,0,0,0.0304,0.0301,0.0321,0.0321,0.0315,0.0318,0.0319,0.0325,0.0318,0.0318,0.0328,0.0328,0.0316,0.0314,0.0313,0.0313,0.0309,0.0308,0.0307,0.0285,0.0285,0.0285,0,0,0,0,0,0,0.0304,0.0306,0.0321,0.0312,0.0314,0.0319,0.0324,0.0324,0.0329,0.0321,0.032,0.0334,0.0316,0.0314,0.031,0.0312,0.0307,0.0307,0.0285,0.0285,0.0285,0.0303,0,0,0,0,0,0,0.0303,0.0306,0.0314,0.0313,0.0314,0.0326,0.0324,0.0324,0.0331,0.0332,0.0325,0.0324,0.0316,0.0311,0.0309,0.031,0.0306,0.0285,0.0285,0.0285,0.0303,0.0304,0.0305,0,0,0,0,0,0.0302,0.0315,0.0315,0.0317,0.0325,0.0326,0.0326,0.0329,0.0331,0.0335,0.0329,0.0325,0.0309,0.0311,0.0308,0.0309,0.0285,0.0285,0.0285,0.0302,0.0304,0.0305,0,0,0,0,0,0,0.0311,0.0317,0.0316,0.0332,0.0331,0.0328,0.0335,0.0333,0.0332,0.0334,0.0324,0.0322,0.0317,0.031,0.0313,0.0301,0.0296,0.0295,0.031,0.0311,0.0312,0.0322,0.0305,0,0,0,0,0,0.0315,0.0326,0.0326,0.0338,0.034,0.0337,0.0339,0.034,0.0337,0.0337,0.0331,0.0323,0.0312,0.0311,0.03,0.0296,0.0278,0.0294,0.0295,0.0296,0.0302,0.0271,0.027,0.0284,0.0284,0.0284,0,0,0.0321,0.0327,0.0333,0.034,0.0341,0.0347,0.0339,0.0346,0.035,0.0335,0.034,0.0326,0.0311,0.0305,0.0303,0.0302,0.0281,0.0296,0.0297,0.0302,0.0271,0.0269,0.0268,0.0284,0.0284,0.0284,0,0,0.0335,0.0343,0.0354,0.0356,0.036,0.036,0.0364,0.0362,0.0361,0.0361,0.0347,0.0336,0.0327,0.0313,0.0305,0.0304,0.0285,0.0302,0.0317,0.0288,0.0286,0.0285,0.0256,0.0252,0.0305,0.0305,0.0305,0,0.0343,0.0356,0.0357,0.0366,0.0374,0.0368,0.038,0.0375,0.0372,0.0369,0.0367,0.0343,0.033,0.0315,0.0316,0.0307,0.0288,0.0315,0.0289,0.0287,0.0286,0.0256,0.0251,0.0306,0.0306,0.0306,0.0305,0,0.0357,0.0372,0.038,0.0392,0.0399,0.0408,0.0405,0.0405,0.0405,0.0398,0.0385,0.0362,0.0349,0.0339,0.033,0.0311,0.03,0.0291,0.0288,0.0285,0.0254,0.0249,0.0307,0.0307,0.0306,0.0306,0,0,0.0367,0.0387,0.0391,0.0404,0.0415,0.0424,0.0428,0.043,0.0436,0.042,0.0419,0.0392,0.0378,0.0368,0.0347,0.0322,0.029,0.0307,0.0305,0.0281,0.0224,0.0218,0.0211,0.0277,0.0276,0.0276,0.0205,0,0.038,0.0408,0.0414,0.0442,0.0457,0.0455,0.0463,0.0463,0.0458,0.0454,0.042,0.0413,0.0389,0.0385,0.0354,0.0308,0.0278,0.031,0.0228,0.0225,0.0222,0.0205,0.0273,0.0201,0.02,0.0199,0.0198,0,0.0393,0.0412,0.0444,0.0472,0.0479,0.0496,0.0512,0.0519,0.0504,0.0496,0.0476,0.0452,0.0415,0.0396,0.0312,0.0334,0.0284,0.0244,0.024,0.0226,0.0209,0.0204,0.0188,0.0189,0.019,0.0191,0.0191,0,0.0404,0.0436,0.0467,0.0475,0.0501,0.0517,0.0534,0.0534,0.0546,0.0528,0.0529,0.0476,0.0457,0.0384,0.0305,0.0308,0.0209,0.02,0.0143,0.0141,0.016,0.0163,0.0137,0.0137,0.0137,0.0137,0.0138,0,0.0416,0.044,0.0478,0.0493,0.0531,0.0544,0.058,0.0579,0.0587,0.0601,0.0558,0.0548,0.0454,0.0389,0.031,0.0211,0.0209,0.0142,0.0122,0.0169,0.0173,0.0156,0.0159,0.0135,0.0135,0.0136,0.0136,0,0.042,0.0442,0.0481,0.0522,0.0539,0.057,0.0621,0.064,0.0643,0.0657,0.0654,0.06,0.0515,0.0412,0.0292,0.0223,0.0124,0.0089,0.0147,0.0132,0.0074,0.0079,0.0016,0.0015,0.0015,0.0014,0.0014,0,0.0422,0.0444,0.0507,0.0537,0.0559,0.0609,0.064,0.0665,0.0687,0.0686,0.0689,0.0622,0.0571,0.0394,0.0285,0.0126,0.0105,0.0048,0.006,0.0075,0.0061,0.0067,0.0073,0.0013,0.0012,0.0012,0.0012,0,0.0424,0.0454,0.0486,0.0552,0.0598,0.0649,0.0698,0.0716,0.0739,0.0744,0.0713,0.0627,0.0529,0.0395,0.0272,0.0159,0.0081,0.0041,0.0041,0.0052,0.0069,0.0058,0.0065,0.001,0.001,0.001,0.001,0,0.0428,0.0452,0.0504,0.056,0.0619,0.0669,0.0698,0.0724,0.0746,0.0745,0.0733,0.0633,0.0579,0.0412,0.0298,0.0186,0.0157,0.0115,0.0111,0.0112,0.0162,0.02,0.016,0,0,0,0,0,0.0426,0.0454,0.0507,0.0567,0.0629,0.0665,0.0723,0.0747,0.0769,0.075,0.0745,0.0655,0.0491,0.0424,0.031,0.0278,0.0132,0.0139,0.008,-0.0004,-0.0001,0.0041,0,0,0,0,0,0,0.0424,0.047,0.0497,0.0562,0.0605,0.067,0.0709,0.0729,0.0721,0.0728,0.0646,0.0616,0.046,0.0554,0.0303,0.0271,0.0215,0.0069,0.0067,-0.0005,-0.0003,-0.0001,0.0043,0,0,0,0,0]}]]